Regional Weather Roundup
Issued by NWS

Home | Current Version | Previous Version | Graphics & Text | Print | Product List | Glossary On
Versions: 1 2 3 4 5 6 7 8 9 10 11 12 13 14 15 16 17 18 19 20 21 22 23 24 25 26 27 28 29 30 31 32 33 34 35 36 37 38 39 40 41 42 43 44 45 46 47 48 49 50
000
ASUS43 KOAX 161110
RWRNE

WEATHER ROUNDUP FOR NEBRASKA
NATIONAL WEATHER SERVICE OMAHA NE
600 AM CDT WED APR 16 2014

NOTES: SATELLITE DATA IS BEING USED TO AUGMENT CLOUD COVER ABOVE
       12000 FEET.
       "FAIR" INDICATES FEW OR NO CLOUDS BELOW 12,000 FEET WITH NO
       SIGNIFICANT WEATHER AND/OR OBSTRUCTIONS TO VISIBILITY.

  * THESE STATIONS DO NOT REPORT WEATHER SUCH AS RAIN...SNOW OR FOG.

NEZ001>004-019>022-054>056-161200-
NEBRASKA PANHANDLE

CITY           SKY/WX    TMP DP  RH WIND       PRES   REMARKS
SCOTTSBLUFF    PTCLDY    40  33  76 NW22G28   29.74R WCI  30
ALLIANCE       LGT RAIN  39  34  82 NW23G30   29.68R WCI  28
CHADRON        RAIN      39  36  89 NW7       29.71R FOG     WCI  34
KIMBALL        MOCLDY    36  31  83 NW13G20   29.75R WCI  27
SIDNEY         MOCLDY    39  32  76 NW29G36   29.71R WCI  27
$$

NEZ057>060-069>072-079>082-161200-
SOUTHWEST NEBRASKA

CITY           SKY/WX    TMP DP  RH WIND       PRES   REMARKS
NORTH PLATTE   CLEAR     34  25  69 SE5       29.56F WCI  30
IMPERIAL       PTCLDY    46  31  55 NW16      29.62S
LEXINGTON      PTCLDY    44  24  44 CALM      29.61F
MCCOOK         CLEAR     40  25  55 SW8       29.60S WCI  34
OGALLALA       MOCLDY    52  32  47 NW31G39   29.60F
$$

NEZ005>010-023>029-035>040-094-161200-
NORTH CENTRAL NEBRASKA

CITY           SKY/WX    TMP DP  RH WIND       PRES   REMARKS
VALENTINE      CLOUDY    41  29  62 NW16G26   29.56R
AINSWORTH      CLOUDY    51  33  50 NW16      29.53R
BROKEN BOW     MOCLDY    42  25  50 S5        29.57F
O`NEILL        CLOUDY    46  24  41 S10G16    29.53S
ORD            MOCLDY    45  24  43 S12       29.58F
THEDFORD       MOCLDY    53  33  47 NW16G25   29.54R
$$

NEZ041-046>049-061>064-073>077-083>087-161200-
SOUTH CENTRAL NEBRASKA

CITY           SKY/WX    TMP DP  RH WIND       PRES   REMARKS
GRAND ISLAND   CLOUDY    47  23  38 S21G30    29.62F
AURORA         CLOUDY    46  22  38 S20G25    29.63F
HASTINGS       CLOUDY    47  21  35 S14       29.63F
HEBRON         MOCLDY    47  19  34 S15G22    29.70S
HOLDREGE       MOCLDY    44  22  43 S16       29.61S
KEARNEY *      CLOUDY    43  25  49 S16G22    29.62S
YORK           CLOUDY    45  23  42 S21G26    29.66S
$$

NEZ011>018-030>034-042>045-161200-
NORTHEAST NEBRASKA

CITY           SKY/WX    TMP DP  RH WIND       PRES   REMARKS
NORFOLK        CLOUDY    47  22  37 SW8G28    29.66R
ALBION         CLOUDY    45  25  46 S5        29.64R
BLAIR          MOCLDY    46  28  49 S24G33    29.71F
COLUMBUS *     CLOUDY    46  21  36 S18G25    29.66S
FREMONT        CLOUDY    47  26  43 S17G24    29.69S
TEKAMAH        CLOUDY    47  28  47 S24G31    29.71F
$$

NEZ050>053-065>068-078-088>093-161200-
SOUTHEAST NEBRASKA

CITY           SKY/WX    TMP DP  RH WIND       PRES   REMARKS
LINCOLN        MOCLDY    50  23  34 S22G35    29.71F
OMAHA EPPLEY   MOCLDY    45  28  51 S24G32    29.75F
BEATRICE       PTCLDY    47  25  41 S15G24    29.74F
FALLS CITY     PTCLDY    47  28  47 S23G31    29.82F
NEBRASKA CITY  PTCLDY    45  29  54 S21       29.78F
PLATTSMOUTH    PTCLDY    45  27  49 S18G25    29.76F
$$

NEZ044-045-051>053-067-161200-
OMAHA AREA

CITY           SKY/WX    TMP DP  RH WIND       PRES   REMARKS
OMAHA EPPLEY   MOCLDY    45  28  51 S24G32    29.75F
BLAIR          MOCLDY    46  28  49 S24G33    29.71F
FREMONT        CLOUDY    47  26  43 S17G24    29.69S
MILLARD        MOCLDY    46  28  49 SE14G20   29.75S
OFFUTT AFB     PTCLDY    44  31  59 SE14      29.76F
PLATTSMOUTH    PTCLDY    45  27  49 S18G25    29.76F
WAHOO          FAIR      46  25  45 SE16      29.71S
$$



USA.gov is the U.S. government's official web portal to all federal, state and local government web resources and services.